Regional Weather Roundup
Issued by NWS Albany, NY

Home | Current Version | Previous Version | Graphics & Text | Print | Product List | Glossary Off
Versions: 1 2 3 4 5 6 7 8 9 10 11 12 13 14 15 16 17 18 19 20 21 22 23 24 25 26 27 28 29 30 31 32 33 34 35 36 37 38 39 40 41 42 43 44 45 46 47 48 49 50

000
ASUS41 KALY 301610
RWRALY

NEW YORK STATE HOURLY WEATHER ROUNDUP
NATIONAL WEATHER SERVICE ALBANY NY
1200 PM EDT SUN AUG 30 2015

NOTE: "FAIR" INDICATES FEW OR NO CLOUDS BELOW 12,000 FEET WITH NO
SIGNIFICANT WEATHER AND/OR NO OBSTRUCTIONS TO VISIBILITY.

NYZ032-033-038>043-046>054-057>066-NYZ062>081-301700-
EAST


CITY           SKY/WX    TMP DP  RH WIND       PRES   REMARKS
ALBANY         CLOUDY    75  63  66 CALM      30.10F
GLENS FALLS    CLOUDY    75  61  61 CALM      30.09F
POUGHKEEPSIE   PTSUNNY   82  65  56 VRB3      30.08F
NEWBURGH       SUNNY     81  68  65 VRB6      30.11F
MONTGOMERY     MOSUNNY   81  68  64 CALM      30.09F
WHITE PLAINS   MOSUNNY   84  64  50 CALM      30.10F
ISLIP          PTSUNNY   81  67  62 S7        30.09F
NEW YORK CITY  PTSUNNY   85  63  47 SW5       30.09F
CENTRAL PARK   SUNNY     86  65  49 CALM      30.12F
$$

NYZ005>009-017-018-044>046-055-056-301700-
CENTRAL


CITY           SKY/WX    TMP DP  RH WIND       PRES   REMARKS
FULTON         CLOUDY    73  63  70 CALM      30.10S
SYRACUSE       CLOUDY    75  64  68 NE5       30.08F
ROME           CLOUDY    75  60  59 CALM      30.11S
ELMIRA         PTSUNNY   76  66  71 SW6       30.10S
BINGHAMTON     CLOUDY    72  61  68 W3        30.13F
MONTICELLO     PTSUNNY   77  64  65 SW3       30.14F
$$

NYZ026>034-041>043-301700-
NORTH


CITY           SKY/WX    TMP DP  RH WIND       PRES   REMARKS
WATERTOWN      CLOUDY    73  60  63 W5        30.10S
FORT DRUM      NOT AVBL
MASSENA        MOSUNNY   75  62  64 W9        30.08F
SARANAC LAKE   SUNNY     69  58  67 SW7       30.12F
PLATTSBURGH    PTSUNNY   74  63  68 SE13      30.06F
$$

NYZ001>004-010>016-019>021-301700-
WEST


CITY           SKY/WX    TMP DP  RH WIND       PRES   REMARKS
NIAGARA FALLS  PTSUNNY   76  61  59 NW6       30.09S
BUFFALO        MOSUNNY   76  65  68 SW7       30.10S
DUNKIRK        CLOUDY    73  65  75 W7        30.11S
JAMESTOWN      PTSUNNY   70  63  78 W7        30.15S
WELLSVILLE     PTSUNNY   75  63  66 NW9       30.17S
ROCHESTER      PTSUNNY   76  60  57 NW6       30.10R
PENN YAN       CLOUDY    75  64  68 CALM      30.11S
$$

             KEY
       WCI = WIND CHILL INDEX
       VSB = VISIBILITY
       HX  = HEAT INDEX
$$


USA.gov is the U.S. government's official web portal to all federal, state and local government web resources and services.